Location: Tamazert
(32.6352°N, 5.2072°W)
Time: 04:03:37
(UTC+00:00)

Tiros 1 despin weight - Pass Details

Date: 05 October 2022
Orbit: 590 x 637 km, 48.2° (Epoch: 30 November)

Event Time Altitude Azimuth Distance (km) Brightness Sun altitude
Rises 20:46:45 0° 315° (NW) 2,891 ? -35.4°
Reaches altitude 10° 20:49:12 10° 323° (NW) 1,992 ? -35.9°
Enters shadow 20:49:48 13° 327° (NNW) 1,781 ? -36.0°
Maximum altitude 20:53:28 37° 32° (NNE) 975 - -36.7°
Drops below altitude 10° 20:57:46 10° 100° (E) 2,009 - -37.6°
Sets 21:00:14 0° 108° (ESE) 2,919 - -38.1°
